www.pogodaiklimat.ru
ПОГОДА в Дипенбеке
Время
(UTC), дата
19 27.06
20 27.06
21 27.06
23 27.06
22 27.06
00 28.06
01 28.06
02 28.06
03 28.06
05 28.06
04 28.06
06 28.06
07 28.06
08 28.06
09 28.06
11 28.06
10 28.06
12 28.06
13 28.06
14 28.06
15 28.06
17 28.06
16 28.06
18 28.06
19 28.06
20 28.06
21 28.06
23 28.06
22 28.06
00 29.06
01 29.06
02 29.06
03 29.06
05 29.06
04 29.06
06 29.06
07 29.06
08 29.06
09 29.06
11 29.06
10 29.06
12 29.06
15 29.06
16 29.06
17 29.06
18 29.06
20 29.06
19 29.06
21 29.06
22 29.06
23 29.06
00 30.06
02 30.06
01 30.06
03 30.06
04 30.06
05 30.06
06 30.06
08 30.06
07 30.06
09 30.06
10 30.06
11 30.06
12 30.06
14 30.06
13 30.06
15 30.06
16 30.06
17 30.06
18 30.06
20 30.06
19 30.06
21 30.06
22 30.06
23 30.06
00 1.07
02 1.07
01 1.07
03 1.07
04 1.07
05 1.07
06 1.07
08 1.07
07 1.07
09 1.07
10 1.07
11 1.07
12 1.07
14 1.07
13 1.07
15 1.07
16 1.07
17 1.07
18 1.07
20 1.07
19 1.07
21 1.07
22 1.07
23 1.07
00 2.07
02 2.07
01 2.07
03 2.07
04 2.07
05 2.07
06 2.07
08 2.07
07 2.07
09 2.07
10 2.07
11 2.07
12 2.07
14 2.07
13 2.07
15 2.07
16 2.07
17 2.07
18 2.07
20 2.07
19 2.07
21 2.07
22 2.07
23 2.07
00 3.07
02 3.07
01 3.07
03 3.07
04 3.07
05 3.07
06 3.07
08 3.07
07 3.07
09 3.07
10 3.07
11 3.07
12 3.07
14 3.07
13 3.07
15 3.07
16 3.07
17 3.07
18 3.07
20 3.07
19 3.07
21 3.07
22 3.07
23 3.07
00 4.07
02 4.07
01 4.07
03 4.07
04 4.07
05 4.07
06 4.07
08 4.07
07 4.07
09 4.07
10 4.07
11 4.07
12 4.07
14 4.07
13 4.07
15 4.07
16 4.07
17 4.07
Ветер
(напр.,м/с)
Видим. Явления Облачность Т
(С)
Тd
(С)
f
(%)
Тe
(С)
Тes
(С)
Комфортность P
(гПа)
Po
(гПа)
Тmin
(С)
Tmax
(С)
R
(мм)
R24
(мм)
S
(см)
ЮЗ 4 н/о 5/5 <50 м
[]
+23.0 +15.3 62 +27 +27 душно 1009.9 1005.6 25
ЮЗ 5 н/о 9/9 <50 м
[]
+22.3 +15.2 64 +26 +26 жарко 1010.3 1006.0 6
Ю 2
{11}
н/о 9/9 <50 м
[]
+20.9 +15.5 71 +25 +25 комфорт 1010.3 1006.0
ЮЗ 3 н/о 9/9
[]
+20.8 +15.7 73 +24 +24 комфорт 1010.3 1006.0
ЮЗ 5 н/о 10/10 <50 м
[]
+21.5 +14.8 66 +25 +25 комфорт 1010.5 1006.2
ЮЗ 4
{11}
н/о 10/10 870 м
[]
+20.5 +15.9 75 +24 +24 комфорт 1010.6 1006.3 165
СЗ 2 н/о 10/10 <50 м
[]
+19.5 +16.3 82 +22 +22 комфорт 1010.7 1006.3
ЮЗ 1 н/о 9/9
[]
+17.8 +16.1 90 +19 +19 1010.6 1006.2
З 3
{6}
н/о 9/9 <50 м
[]
+18.1 +14.6 80 +18 +18 1011.1 1006.7
З 4 н/о 9/9 <50 м
[]
+16.9 +12.9 77 +16 +17 1012.2 1007.8 3
З 4 н/о 9/9
[]
+17.4 +13.2 76 +17 +17 1011.7 1007.3
З 3
{9}
н/о 10/10 <50 м
[]
+16.3 +12.2 77 +16 +16 1013.0 1008.6 +16.3 7
ЮЗ 4 н/о 10/10 <50 м
[]
+16.3 +12.1 76 +16 +16 1013.7 1009.3 14
ЮЗ 4 н/о 9/9 <50 м
[]
+16.9 +11.2 69 +16 +17 1014.1 1009.7 47
З 5
{9}
н/о 10/10 <50 м
[]
+17.4 +11.3 67 +17 +17 1014.5 1010.1 60
ЮЗ 6 н/о 8/8 <50 м
[]
+19.2 +11.7 62 +20 +21 1014.8 1010.4 133
ЮЗ 6 н/о 10/10 <50 м
[]
+18.1 +11.1 64 +18 +18 1014.8 1010.4 88
З 6
{11}
н/о 5/5 <50 м
[]
+20.4 +10.1 52 +22 +25 комфорт 1014.6 1010.2 206
З 6 н/о 8/8 <50 м
[]
+21.2 +9.4 47 +23 +24 комфорт 1014.3 1010.0 214
З 5 н/о 1/1 <50 м
[]
+21.9 +7.9 41 +23 +29 комфорт 1014.1 1009.8 252
З 5
{12}
н/о 5/5 <50 м
[]
+22.0 +7.1 38 +23 +26 комфорт 1014.1 1009.8 198
З 5 н/о 3/3 <50 м
[]
+22.3 +8.1 40 +23 +25 комфорт 1013.6 1009.3 136
З 6 н/о 6/6 <50 м
[]
+22.3 +7.5 38 +23 +24 комфорт 1013.9 1009.6 149
ЮЗ 4
{12}
н/о 8/8 <50 м
[]
+20.7 +9.7 49 +22 +23 комфорт 1013.6 1009.2 +22.7 55
ЮЗ 3 н/о 6/6 <50 м
[]
+20.8 +9.5 48 +23 +23 комфорт 1013.4 1009.1 36
З 1 н/о 9/9 <50 м
[]
+19.7 +9.8 53 +22 +22 комфорт 1013.4 1009.0 11
ЮЗ 1
{6}
н/о 1/1 <50 м
[]
+15.5 +11.7 78 +16 +16 1014.0 1009.6
ЮВ 1 н/о ясно +11.9 +10.0 88 +12 +12 1013.9 1009.4
ЮЗ 2 н/о ясно +15.6 +9.3 66 +16 +16 1014.0 1009.6
Ю 1
{6}
н/о 4/4 <50 м
[]
+11.0 +10.3 95 +11 +11 1014.2 1009.7 161
штиль 0
{2}
н/о 6/6 <50 м
[]
+11.2 +9.8 91 +11 +11 1014.1 1009.6
ЮЗ 1
{2}
н/о 9/4
[]
+10.3 +9.2 93 +10 +10 1013.9 1009.4
ЮЗ 1
{2}
н/о 9/9 <50 м
[]
+11.9 +11.0 94 +12 +12 1013.5 1009.0
Ю 2
{7}
н/о 10/10 <50 м
[]
+13.0 +11.4 90 +12 +12 1013.6 1009.1
ЮЗ 1
{2}
н/о 10/10
[]
+12.6 +11.1 91 +13 +13 1013.2 1008.7
ЮЗ 3
{7}
н/о 9/9 <50 м
[]
+13.6 +11.6 88 +12 +13 1013.5 1009.0 +10.3 0.8
ЮЗ 4
{7}
н/о 9/9 <50 м
[]
+14.6 +11.4 81 +13 +14 1013.6 1009.2 62
ЮЗ 5
{8}
н/о 5/5 <50 м
[]
+16.5 +11.5 72 +16 +18 1013.7 1009.3 116
ЮЗ 5
{9}
н/о 9/9 <50 м
[]
+16.4 +10.0 66 +16 +16 1013.6 1009.2 89
З 7 н/о 8/8 <50 м
[]
+19.0 +8.8 52 +19 +20 1013.7 1009.3 191
З 5 н/о 9/9 <50 м
[]
+17.3 +8.6 57 +17 +18 1013.7 1009.3 166
н/о 90
З 7
{15}
н/о 6/6 <50 м
[]
+20.3 +7.6 44 +21 +22 комфорт 1012.7 1008.3 194
З 6 н/о 9/9 <50 м
[]
+19.6 +7.6 46 +20 +20 1012.6 1008.2 97
З 6 н/о 9/9 <50 м
[]
+19.6 +7.7 46 +20 +20 1012.4 1008.0 73
н/о 6/6 <50 м
[]
+19.1 +7.6 47 1012.3 1007.9 +20.8 53
З 4 н/о 5/5 <50 м
[]
+17.5 +7.9 53 +17 +17 1012.4 1008.0 10
З 5 н/о 5/5 <50 м
[]
+18.3 +7.4 49 +18 +18 1012.2 1007.8 39
З 4
{11}
н/о 4/4 <50 м
[]
+16.3 +8.2 59 +16 +16 1012.9 1008.5
н/о 1/1 <50 м
[]
+14.8 +7.7 62 1012.9 1008.5
ЮЗ 4 н/о 6/6 <50 м
[]
+14.2 +7.5 64 +13 +13 1012.8 1008.4
ЮЗ 4
{11}
н/о 1/1 <50 м
[]
+13.2 +7.6 69 +12 +12 1012.6 1008.1 181
ЮЗ 3 н/о 9/9 <50 м
[]
+13.2 +8.7 74 +12 +12 1012.2 1007.7
ЮЗ 3 н/о 4/4 <50 м
[]
+12.7 +8.3 75 +11 +11 1012.2 1007.7
ЮЗ 4
{7}
н/о 5/5 <50 м
[]
+12.7 +8.8 77 +11 +11 1012.0 1007.5
ЮЗ 3 н/о 3/3 <50 м
[]
+12.1 +8.8 80 +11 +11 1012.0 1007.5
ЮЗ 5 н/о 9/9 <50 м
[]
+13.5 +9.4 76 +12 +12 1011.9 1007.4 14

{9}
н/о 10/10 <50 м
[]
+14.6 +9.9 73 1011.8 1007.4 +12.0 37
ЮЗ 7 н/о 9/9 <50 м
[]
+17.9 +9.7 59 +17 +17 1011.4 1007.0 121
ЮЗ 5 н/о 10/10 <50 м
[]
+15.7 +10.7 72 +15 +15 1011.8 1007.4 54
ЮЗ 7
{13}
н/о 6/6 <50 м
[]
+19.2 +9.7 54 +19 +21 1011.3 1006.9 186
З 5 н/о 9/9 <50 м
[]
+19.5 +9.8 53 +20 +21 1011.1 1006.7 131
З 6 н/о 9/9 <50 м
[]
+20.1 +9.9 52 +21 +22 комфорт 1010.9 1006.6 148

{13}
н/о 9/9 <50 м
[]
+20.6 +10.4 52 1010.8 1006.5 155
ЮЗ 6 н/о 10/10 <50 м
[]
+20.3 +12.1 59 +22 +22 комфорт 1010.3 1006.0 114
ЮЗ 8 н/о 10/10 <50 м
[]
+19.7 +11.3 58 +20 +20 1010.8 1006.4 114
ЮЗ 4 н/о 10/10 <50 м
[]
+19.5 +13.0 66 +21 +21 комфорт 1010.2 1005.8 35
ЮЗ 3 н/о 10/10 <50 м
[]
+20.1 +13.3 65 +22 +22 комфорт 1009.5 1005.2 24
ЮЗ 4 н/о 10/10 <50 м
[]
+19.7 +13.7 68 +21 +21 комфорт 1009.3 1005.0 10
ЮЗ 5 н/о 10/10 <50 м
[]
+19.8 +13.6 67 +21 +21 комфорт 1009.3 1005.0 +20.9 8
ЮЗ 5 н/о 10/10 <50 м
[]
+19.4 +14.2 72 +21 +21 комфорт 1009.2 1004.8 2
ЮЗ 5 н/о 10/10 <50 м
[]
+19.5 +14.0 71 +21 +21 комфорт 1009.2 1004.8 3
ЮЗ 4
{10}
н/о 10/10 <50 м
[]
+19.2 +14.5 74 +21 +21 комфорт 1009.3 1004.9
ЮЗ 4 н/о 10/10 <50 м
[]
+19.3 +14.7 75 +21 +21 комфорт 1009.4 1005.0
ЮЗ 3 н/о 9/9
[]
+18.6 +14.8 79 +20 +20 1008.9 1004.5
ЮЗ 2
{10}
н/о 10/10 <50 м
[]
+18.3 +14.9 81 +19 +19 1008.9 1004.5 0.1 116
Ю 1 н/о 10/10 <50 м
[]
+16.6 +16.4 99 +17 +17 1008.2 1003.8
ЮЗ 2 н/о 10/10 <50 м
[]
+16.8 +16.1 96 +17 +17 1008.6 1004.2
ЮЗ 1 н/о 10/10 <50 м
[]
+16.6 +16.4 99 +17 +17 1007.9 1003.5
Ю 2 н/о 10/10 <50 м
[]
+16.6 +16.5 99 +17 +17 1007.5 1003.1
З 1 н/о 10/10 <50 м
[]
+16.8 +16.7 99 +18 +18 1007.7 1003.3
Ю 3 н/о 10/10 <50 м
[]
+17.3 +16.7 96 +17 +17 1007.4 1003.0 +16.6 7
ЮЗ 4 н/о 9/9 2000 м
[]
+18.1 +16.9 93 +18 +19 1007.5 1003.1 27
ЮЗ 5 н/о 10/10 <50 м
[]
+17.9 +16.6 92 +17 +17 1007.7 1003.3 18
ЮЗ 6
{11}
н/о 10/10 <50 м
[]
+19.1 +17.3 89 +20 +20 1007.4 1003.1 74
ЮЗ 6 н/о 10/10 <50 м
[]
+19.7 +17.0 84 +22 +22 комфорт 1007.4 1003.1 81
ЮЗ 7 н/о 10/10 <50 м
[]
+20.1 +16.9 82 +23 +23 комфорт 1007.6 1003.3 86
ЮЗ 6
{11}
н/о 10/10 <50 м
[]
+20.8 +17.2 80 +24 +24 комфорт 1007.4 1003.1 88
З 4 н/о 10/10 <50 м
[]
+20.5 +18.0 86 +24 +24 комфорт 1007.9 1003.6 111
З 6 н/о 9/9 <50 м
[]
+19.9 +17.7 87 +22 +23 комфорт 1007.9 1003.6 90
ЮЗ 5
{10}
н/о 8/8 <50 м
[]
+21.2 +17.5 79 +25 +26 комфорт 1007.9 1003.6 90
З 5 н/о 10/10 <50 м
[]
+18.6 +17.6 94 +19 +19 1008.5 1004.1 49
ЮЗ 4 н/о 10/10 <50 м
[]
+18.6 +17.2 92 +19 +19 1008.1 1003.7 65
З 5
{10}
н/о 1/1 <50 м
[]
+19.8 +16.6 82 +22 +23 комфорт 1008.2 1003.9 +21.5 84
З 3 н/о 5/5 <50 м
[]
+18.7 +16.2 85 +20 +20 1008.9 1004.5 4
ЮЗ 4 н/о 6/6 <50 м
[]
+19.5 +16.1 81 +21 +22 комфорт 1008.3 1004.0 43
ЮЗ 2
{8}
н/о 9/9 <50 м
[]
+16.9 +15.5 91 +17 +17 1009.6 1005.2
ЮЗ 3 н/о ясно +16.2 +14.1 87 +16 +16 1010.0 1005.6
ЮЗ 2 н/о ясно +15.1 +13.3 89 +15 +15 1010.4 1006.0
ЮЗ 3
{8}
н/о 4/4 <50 м
[]
+14.6 +13.2 91 +14 +14 1010.6 1006.2 92
ЮЗ 2 н/о ясно +13.5 +12.2 92 +13 +13 1010.7 1006.3
ЮЗ 3 н/о 5/5 <50 м
[]
+14.0 +12.7 92 +13 +13 1010.9 1006.5
Ю 1
{4}
н/о 6/6 <50 м
[]
+12.6 +12.1 97 +12 +12 1010.8 1006.3
ЮЗ 1 н/о 10/10 <50 м
[]
+12.7 +12.5 99 +13 +13 1010.9 1006.4
ЮЗ 3 н/о н/о +14.6 +13.2 91 +14 +14 1011.2 1006.8 6
З 3
{5}
н/о 10/10 <50 м
[]
+15.4 +13.3 87 +15 +15 1011.3 1006.9 +12.2 12
З 4 н/о 9/9 <50 м
[]
+18.2 +14.6 80 +18 +19 1011.4 1007.0 114
ЮЗ 3 н/о 8/6 2000 м
[]
+16.6 +14.3 86 +16 +18 1011.3 1006.9 69
З 4
{7}
н/о 9/9 <50 м
[]
+18.8 +14.5 76 +20 +20 1011.5 1007.1 133
ЮЗ 4 н/о 9/9 1000 м
[]
+19.8 +15.0 74 +22 +23 комфорт 1011.6 1007.2 168
ЮЗ 4 н/о 10/10
[]
+19.7 +14.3 71 +22 +22 комфорт 1011.9 1007.5 137
З 4
{8}
н/о 10/10 <50 м
[]
+18.5 +14.9 80 +19 +19 1012.2 1007.8 0.2
СЗ 2 н/о 9/9 <50 м
[]
+18.5 +14.2 76 +20 +21 1012.5 1008.1 104
З 5 н/о 4/4 <50 м
[]
+21.3 +13.9 63 +24 +29 комфорт 1011.8 1007.5 229
З 5
{9}
н/о 9/9 <50 м
[]
+19.9 +11.9 60 +21 +22 комфорт 1012.4 1008.0 64
З 5 н/о 3/3 <50 м
[]
+20.6 +11.5 56 +22 +25 комфорт 1012.6 1008.3 164
З 5 н/о 9/9 <50 м
[]
+20.3 +10.5 53 +22 +22 комфорт 1013.0 1008.6 103
З 4
{10}
н/о 5/5 <50 м
[]
+19.5 +10.9 58 +21 +21 комфорт 1013.4 1009.0 +21.7 63
С 2 н/о 9/9 <50 м
[]
+17.1 +12.5 74 +17 +17 1014.8 1010.4 2
З 5 н/о 4/4 <50 м
[]
+19.2 +10.0 55 +20 +20 1013.9 1009.5 26
ЮЗ 1
{8}
н/о ясно +13.7 +12.5 92 +14 +14 1015.6 1011.1
ЮЗ 2 н/о ясно +13.8 +10.7 82 +13 +13 1015.9 1011.4
ЮЗ 2 н/о ясно +13.4 +10.6 83 +13 +13 1016.4 1011.9
ЮЗ 3
{8}
н/о ясно +13.5 +10.5 82 +12 +12 1016.8 1012.3 150
ЮЗ 3 н/о 10/10 <50 м
[]
+13.2 +11.1 87 +12 +12 1017.3 1012.8
ЮЗ 2 н/о 6/6 <50 м
[]
+12.7 +10.8 88 +12 +12 1016.9 1012.4
ЮЗ 3
{6}
н/о 9/9 480 м
[]
+12.6 +11.0 90 +11 +11 1017.2 1012.7
ЮЗ 2
{3}
н/о 5/5 <50 м
[]
+12.0 +11.2 95 +11 +11 1017.7 1013.2
ЮЗ 1 н/о 10/10 <50 м
[]
+13.2 +12.6 96 +13 +13 1018.0 1013.5 3
ЮЗ 4
{6}
н/о 10/10 <50 м
[]
+14.1 +12.9 92 +13 +13 1018.4 1013.9 +12.0 10
ЮЗ 4 н/о 10/10 <50 м
[]
+15.2 +13.5 90 +14 +14 1018.9 1014.4 49
ЮЗ 4 н/о 10/10 <50 м
[]
+14.3 +13.1 92 +13 +13 1018.7 1014.2 20
ЮЗ 4
{7}
н/о 9/9 <50 м
[]
+16.2 +13.7 85 +15 +16 1019.1 1014.7 73
ЮЗ 5 н/о 10/10 <50 м
[]
+16.8 +13.5 81 +16 +16 1019.2 1014.8 95
ЮЗ 5 н/о 10/10 <50 м
[]
+18.0 +14.0 77 +18 +18 1019.1 1014.7 121
ЮЗ 6
{9}
н/о 8/8 <50 м
[]
+19.8 +14.3 71 +21 +23 комфорт 1018.9 1014.5 191
ЮЗ 6 н/о 9/9 <50 м
[]
+21.4 +13.1 59 +24 +24 комфорт 1018.1 1013.7 175
ЮЗ 4 н/о 4/4 <50 м
[]
+20.9 +14.2 66 +24 +30 комфорт 1018.3 1013.9 252
З 5
{11}
н/о 9/9 <50 м
[]
+21.5 +12.9 58 +24 +24 комфорт 1018.1 1013.7 160
ЮЗ 5 н/о 6/6 <50 м
[]
+21.5 +13.2 59 +24 +25 комфорт 1017.9 1013.5 143
ЮЗ 5 н/о 6/6
[]
+21.2 +13.0 59 +23 +24 комфорт 1017.6 1013.2 101
ЮЗ 4
{11}
н/о 1/1 <50 м
[]
+20.7 +12.4 59 +23 +24 комфорт 1017.5 1013.1 +21.7 68
З 3 н/о н/о +18.8 +12.3 66 +20 +20 1018.2 1013.8 9
ЮЗ 4 н/о 8/8 <50 м
[]
+19.6 +12.3 63 +21 +21 комфорт 1018.0 1013.6 33
З 2
{9}
н/о ясно +17.5 +10.5 63 +18 +18 1018.5 1014.1
ЮЗ 2 н/о 9/9
[]
+15.7 +10.8 73 +16 +16 1018.7 1014.3
ЮЗ 2 н/о 9/9 <50 м
[]
+15.0 +11.1 77 +15 +15 1018.7 1014.2
ЮЗ 2
{9}
н/о 9/9 <50 м
[]
+14.6 +11.2 80 +14 +14 1018.6 1014.1 151
ЮЗ 2 н/о 10/10 <50 м
[]
+14.4 +11.8 84 +14 +14 1018.0 1013.5
Ю 3 н/о 9/9 <50 м
[]
+14.4 +11.5 83 +13 +13 1018.1 1013.6
ЮЗ 3
{4}
н/о 9/9 <50 м
[]
+14.2 +12.0 87 +13 +13 1017.6 1013.1
ЮЗ 3 н/о 10/10 <50 м
[]
+14.8 +12.0 83 +14 +14 1017.1 1012.6
ЮЗ 3 н/о 10/10 <50 м
[]
+15.7 +12.2 80 +15 +15 1016.8 1012.4 6
ЮЗ 4
{7}
н/о 10/10 <50 м
[]
+16.5 +11.8 74 +16 +16 1016.8 1012.4 +14.1 11
ЮЗ 6 н/о 9/8
[]
+18.7 +13.1 70 +19 +19 1016.2 1011.8 106
ЮЗ 4 н/о 10/10 <50 м
[]
+17.3 +12.5 73 +17 +17 1016.7 1012.3 35
ЮЗ 6
{11}
н/о 9/9 <50 м
[]
+19.0 +13.0 68 +20 +20 1016.1 1011.7 131
ЮЗ 6 н/о 10/10 <50 м
[]
+19.1 +13.1 68 +20 +20 1015.9 1011.5 126
ЮЗ 7 н/о 10/10 <50 м
[]
+20.3 +14.0 67 +22 +22 комфорт 1015.8 1011.4 127
ЮЗ 7
{11}
н/о 10/10 <50 м
[]
+20.4 +14.3 68 +23 +23 комфорт 1015.8 1011.4 105
ЮЗ 7 н/о 10/10 <50 м
[]
+20.4 +15.1 72 +23 +23 комфорт 1015.6 1011.2 54
ЮЗ 6 н/о 10/10 <50 м
[]
+20.3 +14.9 71 +23 +23 комфорт 1015.6 1011.2 69
ЮЗ 6
{12}
н/о 10/10 <50 м
[]
+20.8 +15.6 72 +24 +24 комфорт 1015.2 1010.8 51
ЮЗ 6 н/о 10/10 <50 м
[]
+21.0 +15.8 72 +24 +24 комфорт 1015.0 1010.6 43
ЮЗ 6 н/о 10/10 <50 м
[]
+20.5 +15.9 75 +23 +23 комфорт 1015.0 1010.6 16
Местоположение метеостанции Дипенбек (Бельгия): широта 50.92 долгота 5.45 высота над уровнем моря 37 м.
В архиве по умолчанию представлена погода в Дипенбеке за последнюю неделю. Архивные данные за месяц целиком и за предыдущие месяцы, начиная с января 2011 года, Вы можете получить, выбрав интересующий диапазон дат из раскрывающегося списка и нажав кнопку "Найти!".
*Определитесь, кто Вы:
Внимание! Время в таблицах - всемирное. Для получения местного времени необходимо прибавить поправку, которая равна 1 ч.
Смотрите также архив погоды в соседних городах и на ближайших метеорологических станциях:
Партнеры нашего сайта:      
Пояснения к столбцам:
  • Ветер - указаны скорость ветра в м/с - средняя за 10 мин, порывы в срок и между сроками (в фигурных скобках) и направление, откуда дует ветер: С - северный,
  • СВ - северо-восточный, В - восточный, ЮВ - юго-восточный, Ю - южный, ЮЗ - юго-западный, З - западный, СЗ - северо-западный.
  • Видимость - горизонтальная дальность видимости в метрах или километрах. При видимости от 1 до 10 км при отсутствии осадков обычно наблюдается дымка, при ухудшении видимости до 1 км и менее - туман. В сухую погоду видимость может ухудшаться дымом, пылью или мглою.
  • Явления - указаны атмосферные явления, наблюдавшиеся в срок или в последний час перед сроком; фигурными скобками обозначены явления, наблюдавшиеся между сроками (за 1-3 часа до срока); квадратными скобками обозначены град или гололедные отложения с указанием их диаметра в мм.
  • Облачность - указаны через наклонную черту общая и нижняя облачность в баллах и высота нижней границы облаков в метрах; квадратными скобками обозначены формы облаков: Ci - перистые, Cs - перисто-слоистые, Cc - перисто-кучевые, Ac - высококучевые, As - высокослоистые, Sc - слоисто-кучевые, Ns - слоисто-дождевые, Cu - кучевые, Cb - кучево-дождевые. Подробнее классификацию облаков см. в Атласе облаков (PDF).
  • T - Температура воздуха - температура, измеренная на высоте 2 м над землей.
  • Td - Температура точки росы - температура, при понижении до которой содержащийся в воздухе водяной пар достигнет насыщения.
  • f - Относительная влажность воздуха - влажноcть воздуха, измеренная на высоте 2 м над землей.
  • Te - Эффективная температура - температура, которую ощущает одетый по сезону человек в тени. Характеристика душности погоды. При расчете учитывается влияние влажности воздуха и скорости ветра на теплоощущения человека.
  • Tes - Эффективная температура на солнце - температура, которую ощущает человек, с поправкой на солнечный нагрев. Характеристика знойности погоды. Зависит от высоты солнца над горизонтом, облачности и скорости ветра. Ночью, в пасмурную погоду, а также при ветре 12 м/с и более поправка равна нулю.
  • P - Атмосферное давление - приведенное к уровню моря атмосферное давление.
  • Po - Атмосферное давление - измеренное на уровне метеостанции атмосферное давление.
  • Tmin - Минимальная температура - минимум температуры воздуха на высоте 2 м над землей.
  • Tmax - Максимальная температура - максимум температуры воздуха на высоте 2 м над землей.
  • R - Количество осадков - Количество выпавших осадков за период времени, мм. При наведении курсора мыши на число - период времени, за который выпало указанное количество осадков.
  • R24 - Количество осадков - Количество выпавших осадков за 24 часа, мм.
  • S - Снежный покров - Высота снежного покрова, см. При наведении курсора мыши на число - состояние снежного покрова и степень покрытия местности в баллах.